{"data":{"norad_id":59160,"epoch":"2026-05-25T03:02:18.373920Z","epoch_age_seconds":64082,"freshness":"FRESH","line1":"1 59160U 24044J   26145.12660155  .00002845  00000+0  11286-3 0  9998","line2":"2 59160  43.0010  35.5239 0001123 270.0638  90.0085 15.27586443125286","mean_motion":15.27586443,"eccentricity":0.0001123,"inclination_deg":43.001,"raan_deg":35.5239,"arg_perigee_deg":270.0638,"mean_anomaly_deg":90.0085,"bstar":0.00011286,"rev_number":12528,"period_min":94.266351118697,"perigee_km":482.25929441558,"apogee_km":483.80031247963,"semimajor_km":6861.1668034476,"source":"CELESTRAK","updated_at":"2026-05-25T13:38:18.834036Z"}}